Regional Weather Roundup
Issued by NWS

Home | Current Version | Previous Version | Text Only | Print | Product List | Glossary Off
Versions: 1 2 3 4 5 6 7 8 9 10 11 12 13 14 15 16 17 18 19 20 21 22 23 24 25 26 27 28 29 30 31 32 33 34 35 36 37 38 39 40 41 42 43 44 45 46 47 48 49 50

000
ASUS43 KMKX 160711
RWRWI

WISCONSIN REGIONAL WEATHER ROUNDUP
NATIONAL WEATHER SERVICE MILWAUKEE/SULLIVAN WI
200 AM CDT WED APR 16 2014

NOTE: "FAIR" INDICATES FEW OR NO CLOUDS BELOW 12,000 FEET WITH NO
SIGNIFICANT WEATHER AND/OR OBSTRUCTIONS TO VISIBILITY.

WIZ001-002-006>008-014>016-023>028-160800-
NORTHWEST WISCONSIN

CITY           SKY/WX    TMP DP  RH WIND       PRES   REMARKS
SUPERIOR ARPT  MOCLDY    23   9  54 CALM      30.13S
ASHLAND        PTCLDY    21   8  57 S5        30.15S WCI  15
HAYWARD        CLOUDY    22  13  68 CALM      30.11S
SIREN          CLOUDY    28   8  42 E5        30.09F WCI  23
RICE LAKE      NOT AVBL
LADYSMITH      CLOUDY    27  17  67 E5        30.13S WCI  22
EAU CLAIRE     CLOUDY    31  13  47 SE6       30.11S WCI  25
MENOMONIE      CLOUDY    31  19  61 SE7       30.11S WCI  24
NEW RICHMOND   FLURRIES  32  19  58 SE7       30.09S WCI  26
OSCEOLA        CLOUDY    32  19  58 SE10      30.11S WCI  24
$$

WIZ003>005-009-010-017-018-160800-
NORTH CENTRAL WISCONSIN

CITY           SKY/WX    TMP DP  RH WIND       PRES   REMARKS
WOODRUFF       PTCLDY    14   0  53 CALM      30.12S
RHINELANDER    CLEAR     11   4  73 CALM      30.13R
EAGLE RIVER    CLEAR      8   4  84 CALM      30.12F
LAND O LAKES   CLEAR      0  -3  85 CALM      30.13S
PHILLIPS       CLOUDY    19  11  72 CALM      30.11S
TOMAHAWK       PTCLDY    13  10  87 CALM      30.12S
MEDFORD        MOCLDY    25  16  67 SE6       30.11S WCI  18
MERRILL        PTCLDY    16  13  89 CALM      30.13S
$$

WIZ029-030-035-036-043>047-160800-
CENTRAL WISCONSIN

CITY           SKY/WX    TMP DP  RH WIND       PRES   REMARKS
WAUSAU         CLOUDY    22  16  78 E5        30.14R WCI  16
MOSINEE        PTCLDY    21  18  86 SE5       30.16R WCI  15
MARSHFIELD     MOCLDY    26  18  71 SE3       30.13S
STEVENS POINT  MOCLDY    17  14  88 CALM      30.16F
WAUPACA        PTCLDY    25  21  86 CALM      30.19S
WAUTOMA        CLOUDY    23  21  92 CALM      30.19S
WISC RAPIDS    CLOUDY    24  16  71 SE6       30.17S WCI  17
CAMP DOUGLAS   MOCLDY    27  20  74 SE8       30.15S WCI  19
$$

WIZ011>013-019>022-031-037>040-048>050-160800-
NORTHEAST WISCONSIN

CITY           SKY/WX    TMP DP  RH WIND       PRES   REMARKS
ANTIGO         CLEAR     17  10  74 CALM      30.14S
STURGEON BAY   CLEAR     25  16  68 S5        30.20S WCI  19
GREEN BAY      CLEAR     27  22  81 S3        30.20S
MANITOWOC      CLEAR     23  18  81 CALM      30.22S
APPLETON       CLEAR     27  19  74 CALM      30.20R
CLINTONVILLE   PTCLDY    23  19  86 CALM      30.19R
OSHKOSH        CLEAR     24  18  77 S5        30.19F WCI  18
$$

WIZ032>034-041-042-053>061-160800-
SOUTHWEST WISCONSIN

CITY           SKY/WX    TMP DP  RH WIND       PRES   REMARKS
LA CROSSE      CLOUDY    32  19  58 E8        30.11F WCI  25
SPARTA         CLOUDY    29  19  66 E5        30.15S WCI  24
VIROQUA        FAIR      28  19  66 SE8       30.10F WCI  20
BOSCOBEL       CLOUDY    29  22  75 CALM      30.15F
PRAIRIE DU CHI MOCLDY    31  21  65 E8        30.13S WCI  24
PLATTEVILLE    FAIR      30  22  70 E8        30.14F WCI  23
$$

WIZ056-057-062-063-064-067-068-160800-
SOUTH CENTRAL WISCONSIN

CITY           SKY/WX    TMP DP  RH WIND       PRES   REMARKS
BARABOO/DELLS  CLOUDY    28  19  70 E6        30.16S WCI  21
LONE ROCK      CLOUDY    30  23  75 E8        30.16F WCI  22
WATERTOWN      CLEAR     24  20  85 E5        30.19S WCI  18
MADISON        CLOUDY    29  19  66 E8        30.18S WCI  21
MIDDLETON      CLOUDY    28  24  84 CALM      30.17S
MONROE         CLEAR     29  17  61 SE7       30.15F WCI  22
JANESVILLE     PTCLDY    28  23  80 CALM      30.18F
$$

WIZ051-052-058>065-066-070>072-160800-
SOUTHEAST WISCONSIN

CITY           SKY/WX    TMP DP  RH WIND       PRES   REMARKS
MILWAUKEE      PTCLDY    26  20  77 CALM      30.23R
WAUKESHA       CLEAR     23  21  93 CALM      30.22R
MILWAUKEE/TIMM CLEAR     25  19  80 CALM      30.23S
RACINE         CLEAR     26  22  84 CALM      30.24R
BURLINGTON     CLEAR     22  20  95 CALM      30.21S
KENOSHA        CLEAR     25  20  81 CALM      30.22R
FOND DU LAC    CLEAR     26  19  74 SE6       30.20S WCI  19
SHEBOYGAN      CLEAR     25  22  88 SW3       30.22R
WEST BEND      CLEAR     23  19  86 CALM      30.21S
JUNEAU         PTCLDY    27  19  73 E6        30.20S WCI  20
$$

LSZ147-162-160800-
LAKE SUPERIOR

STATION/POSITION TIME  TEMP    WIND        PRES    WAVE
                       AIR SEA DIR/SP/G            HT/PER
                 (UTC) (F)     (DEG/KT/KT) (MB)    (FT/S)
DEVILS ISLAND    0700   28     190/  1/  3 1022.2R
PORT WING        0640   24     130/  2/  5 1020.7S
SAXON HARBOR     0640          180/  3/  6 1021.0S
$$

LMZ867-665-643>646-160800-
LAKE MICHIGAN

STATION/POSITION TIME  TEMP    WIND        PRES    WAVE
                       AIR SEA DIR/SP/G            HT/PER
                 (UTC) (F)     (DEG/KT/KT) (MB)    (FT/S)
NORTHPORT PIER   0600   24     110/  3/  5 1023.0R
SISTER BAY       0623   24     130/  5/  7   N/A
KEWAUNEE LAKESHO 0600   26     270/  2/  3 1023.6R
SHEBOYGAN LAKESH 0700   32     210/  9/ 10 1024.5R
PORT WASHINGTON  0600   29     260/  4/  4 1024.0
MILWAUKEE LAKESH 0600   32     190/  4/  5   N/A
KENOSHA   LAKESH 0700   32     190/  4/  6   N/A
$$

TC  - TEMPERATURE IN CELSIUS
VSB - VISIBILITY IN STATUTE MILES
WCI - WIND CHILL INDEX
HX  - HEAT INDEX




USA.gov is the U.S. government's official web portal to all federal, state and local government web resources and services.